Regional Weather Roundup
Issued by NWS

Home | Current Version | Previous Version | Text Only | Print | Product List | Glossary Off
Versions: 1 2 3 4 5 6 7 8 9 10 11 12 13 14 15 16 17 18 19 20 21 22 23 24 25 26 27 28 29 30 31 32 33 34 35 36 37 38 39 40 41 42 43 44 45 46 47 48 49 50

000
ASUS43 KFSD 190510
RWRSD

WEATHER ROUNDUP FOR SOUTH DAKOTA
NATIONAL WEATHER SERVICE SIOUX FALLS SD
1100 PM CST SAT FEB 18 2017

NOTE: "FAIR" INDICATES FEW OR NO CLOUDS BELOW 12,000 FEET WITH NO
SIGNIFICANT WEATHER AND/OR OBSTRUCTIONS TO VISIBILITY.


SDZ001>005-009-010-012>017-190600-
NORTHWEST AND NORTH CENTRAL SOUTH DAKOTA

CITY           SKY/WX    TMP DP  RH WIND       PRES   REMARKS
BUFFALO          N/A     42  33  70 E6        29.54S
FAITH            N/A     42  33  70 SE13      29.61S
MOBRIDGE       CLOUDY    40  32  73 S10       29.63R
$$

SDZ012>016-024>037-041>051-057-063-072>074-190600-
SOUTHWEST AND SOUTH CENTRAL SOUTH DAKOTA

CITY           SKY/WX    TMP DP  RH WIND       PRES   REMARKS
RAPID CTY ARPT PTCLDY    46  31  55 SE5       29.63R
PIERRE         PTCLDY    46  30  53 SE10      29.67R
CUSTER         CLOUDY    41  25  53 S3        29.69S
ELLSWORTH AFB  CLOUDY    46  32  58 S6        29.62R
PHILIP         MOCLDY    50  33  52 N3        29.63S
PINE RIDGE     CLOUDY    50  32  50 S26G32    29.65S
SPEARFISH      FAIR      46  30  53 SW8       29.63S
WINNER         FAIR      45  30  55 S6        29.71R
$$

SDZ004>011-016>023-039-040-190600-
NORTHEAST SOUTH DAKOTA

CITY           SKY/WX    TMP DP  RH WIND       PRES   REMARKS
ABERDEEN       CLEAR     36  32  85 SE9       29.73S
WATERTOWN      CLEAR     40  35  83 SE7       29.77S
BROOKINGS      CLEAR     38  35  89 SE10      29.79R
SISSETON         N/A     36  35  96 SE5       29.78S
$$

SDZ017-020-022-023-036>040-048>070-190600-
SOUTHEAST SOUTH DAKOTA

CITY           SKY/WX    TMP DP  RH WIND       PRES   REMARKS
SIOUX FALLS    MOCLDY    40  37  89 E6        29.81R
HURON          PTCLDY    38  35  89 SE7       29.75R
CHAMBERLAIN    PTCLDY    42  36  78 SE9       29.73R
MITCHELL       PTCLDY    41  37  86 SE8       29.76S
YANKTON        PTCLDY    43  34  70 CALM      29.79R
$$

ABBREVIATIONS USED IN REMARKS
   TC - TEMPERATURE IN CELSIUS
  WCI - WIND CHILL INDEX
   HX - HEAT INDEX
  VSB - VISIBILITY




USA.gov is the U.S. government's official web portal to all federal, state and local government web resources and services.